This is the latest recevied weather packets stored in our database for station/object K3FAZ. If no packets are shown the sender has not sent any weather packets the latest 10 day(s).
| Time | Temp. | Humidity | Pressure | Rain* | Wind** | Luminosity | Snow |
|---|---|---|---|---|---|---|---|
| 1777488793 | 15.56° C | 98% | 1008.1 hPa | 10.67 mm | - | 17 W/m² | - |
| 1777488491 | 15.56° C | 97% | 1008.1 hPa | 12.7 mm | - | 18 W/m² | - |
| 1777488189 | 15.56° C | 97% | 1007.9 hPa | 11.94 mm | - | 11 W/m² | - |
| 1777487887 | 15.56° C | 97% | 1007.8 hPa | 3.05 mm | - | 28 W/m² | - |
| 1777487584 | 15.56° C | 97% | 1008 hPa | 3.05 mm | - | 18 W/m² | - |
| 1777487281 | 15.56° C | 97% | 1007.6 hPa | 11.94 mm | - | 40 W/m² | - |
| 1777486978 | 15.56° C | 98% | 1007.8 hPa | 14.99 mm | - | 27 W/m² | - |
| 1777486674 | 15.56° C | 97% | 1008 hPa | 10.67 mm | - | 63 W/m² | - |
| 1777486372 | 15.56° C | 97% | 1008.1 hPa | 4.83 mm | - | 39 W/m² | - |
| 1777486069 | 15.56° C | 96% | 1008.1 hPa | 0 mm | - | 42 W/m² | - |
| 1777485765 | 15.56° C | 97% | 1008.1 hPa | 0 mm | - | 65 W/m² | - |
| 1777485461 | 15.56° C | 97% | 1008.2 hPa | 0 mm | - | 175 W/m² | - |
| 1777485158 | 15.56° C | 98% | 1008.4 hPa | 1.27 mm | - | 91 W/m² | - |
| 1777484854 | 15.56° C | 98% | 1008.4 hPa | 3.05 mm | - | 76 W/m² | - |
| 1777484551 | 15° C | 98% | 1008.9 hPa | 9.65 mm | - | 108 W/m² | - |
| 1777484248 | 15° C | 98% | 1009.1 hPa | 11.94 mm | - | 43 W/m² | - |
| 1777483944 | 15° C | 98% | 1009.1 hPa | 4.83 mm | - | 40 W/m² | - |
| 1777483641 | 15° C | 98% | 1009.2 hPa | 1.78 mm | - | 28 W/m² | - |
| 1777483336 | 15° C | 98% | 1009.5 hPa | 1.78 mm | - | 32 W/m² | - |
| 1777483032 | 15° C | 97% | 1009.6 hPa | 0 mm | - | 70 W/m² | - |
| 1777482729 | 15° C | 97% | 1009.9 hPa | 0 mm | - | 156 W/m² | - |
| 1777482424 | 15° C | 97% | 1009.8 hPa | 0 mm | - | 187 W/m² | - |
| 1777482122 | 15° C | 97% | 1010.1 hPa | 1.27 mm | - | 75 W/m² | - |
| 1777481820 | 15° C | 97% | 1010.3 hPa | 1.27 mm | - | 40 W/m² | - |
| 1777481517 | 15° C | 98% | 1010.3 hPa | 4.32 mm | - | 42 W/m² | - |
* Rain latest hour (hover to see other rain measurements)
** Current wind speed in m/s (hover to see current wind gust speed)